星链-30555 (STARLINK-30555 )

导读 | 豆包AI

STARLINK-30555是美国太空探索技术公司(SpaceX)星链互联网星座的卫星之一,于2023年10月9日发射入轨。星链项目旨在构建全球卫星互联网,为全球偏远地区、海洋等网络覆盖薄弱区域提供高速网络服务,该卫星的发射进一步扩充了星链星座的在轨规模,推进了星座组网进程。

基本信息
目录编号:
58040
目录名称:
STARLINK-30555
国际标识:
2023-156N
轨道中心:
EARTH
卫星名称:
星链-30555
卫星全名:
星链-30555 (STARLINK-30555 )
卫星状态:
在轨 (已飞行934 天)
发射日期:
2023-10-09 UTC
国别 :
美国 (US)
星等 :
--
轨道信息
数据来源 国际轨道数据
星历时间: 2026-04-30T02:24:46+0800
23小时前
查看轨道信息
半长轴: 6853.35km
偏心率: 0.0001116
轨道倾角: 53.162°
近地点辐角 93.533°
升交点赤经 290.890°
平近点角 266.580°
近地点: 474.448km
远地点: 475.978km
周期: 94.105分钟
每日圈数: 15.302008
详细信息
固有亮度:
5
最大亮度:
0.3
卫星平台:
Starlink v2.0 mini
覆盖范围:
全球
运营商:
太空探索技术公司
运营商所在国:
美国
制造商(研发单位):
太空探索技术公司
制造商所在国:
美国
使用方式:
暂无
卫星简介
星链(Starlink)计划是由太空探索技术公司(SpaceX)提出的一个巨型低轨卫星互联网星座项目,计划在2019年至2024年间在太空搭建由约1.2万颗卫星组成的“星链”网络,其中1584颗将部署在地球上空550千米处的近地轨道,并从2020年开始工作。该卫星仍在工作。
2D轨道图
3D轨道图
轨道高度分析图
轨道倾角分析图
轨道综合分析图
查看轨道综合分析图